Regional Weather Roundup
Issued by NWS

Home | Current Version | Previous Version | Text Only | Print | Product List | Glossary On
Versions: 1 2 3 4 5 6 7 8 9 10 11 12 13 14 15 16 17 18 19 20 21 22 23 24 25 26 27 28 29 30 31 32 33 34 35 36 37 38 39 40 41 42 43 44 45 46 47 48 49 50
048
ASUS44 KLIX 272212
RWRLA
LOUISIANA WEATHER ROUNDUP
NATIONAL WEATHER SERVICE NEW ORLEANS LA
500 PM CDT FRI MAY 27 2016

NOTE: "FAIR" INDICATES FEW OR NO CLOUDS BELOW 12,000 FEET WITH NO
      SIGNIFICANT WEATHER AND/OR OBSTRUCTIONS TO VISIBILITY.
      SKY/WX - SKY CONDITION AND SIGNIFICANT WEATHER.
      TMP - AIR TEMPERATURE.    DP   - DEWPOINT TEMPERATURE.
      RH  - RELATIVE HUMIDITY.  PRES - PRESSURE.
      HX  - HEAT INDEX.         WCI  - WIND CHILL INDEX.

*  THESE STATIONS ARE NOT NWS OR FAA STATIONS AND ARE NOT UNDER
   NWS QUALITY CONTROL.

LAZ040-048-061>063-065-066-069-272300-
SOUTHEAST LOUISIANA

CITY           SKY/WX    TMP DP  RH WIND       PRES   REMARKS
N.O. AUDUBON     N/A     84  70  61 MISG        N/A
N.O. INTL ARPT CLOUDY    84  68  58 SE13      29.91S
N.O. LAKEFRONT CLOUDY    83  67  58 SE16      29.92S
N.O. DOWNTOWN* MOCLDY    82  69  64 VRB5      29.93R
RESERVE*       FAIR      83  67  58 S17G23    29.91S
SLIDELL        MOSUNNY   82  66  58 SE10G22   29.92S
BATON ROUGE    CLOUDY    83  66  56 SE9G21    29.89S
BOOTHVILLE     CLOUDY    80  68  66 SE12      29.92F
BELLE CHASSE   CLOUDY    82  69  64 SE14      29.91S
BOGALUSA*      MOCLDY    83  64  53 S8        29.95R
GALLIANO*      CLOUDY    82  70  66 SE13G18   29.92R
NEW ROADS*     FAIR      82  69  64 SE12      29.88S
GONZALES*      MOCLDY    82  65  56 SE10      29.90R
HAMMOND*       CLOUDY    81  64  57 SE12G22   29.92R
HOUMA*         MOSUNNY   79  72  78 SE12G17   29.95
PORT FOURCHON* PTCLDY    81  70  69 SE18      29.90S

$$

LAZ041-044-053-054-272300-
SOUTHWEST LOUISIANA

CITY           SKY/WX    TMP DP  RH WIND       PRES   REMARKS
LAKE CHARLES   CLOUDY    81  72  74 S16G25    29.85R
LAFAYETTE      MOSUNNY   82  67  60 S13G20    29.89S
PATTERSON      CLOUDY    82  69  64 SE12      29.92R
SALT POINT       N/A     81  71  71 VRB5      29.90R
NEW IBERIA     CLOUDY    82  69  64 S17G26    29.89F
CHENAULT AIRPK CLOUDY    81  72  74 S14       29.85S

$$

LAZ027-028-272300-
CENTRAL LOUISIANA

CITY           SKY/WX    TMP DP  RH WIND       PRES   REMARKS
FORT POLK      CLOUDY    69  67  93 NW8       29.88R
ALEXANDRIA INT CLOUDY    70  66  87 N17G25    29.89R
ALEXANDRIA     LGT RAIN  75  68  78 W17G28    29.88R

$$

LAZ001-002-272300-
NORTHWEST LOUISIANA

CITY           SKY/WX    TMP DP  RH WIND       PRES   REMARKS
SHREVEPORT     TSTM      68  66  93 SE14      29.77F FOG
BARKSDALE AFB  CLOUDY    66  66 100 SE15      29.81F
DTN SHREVEPORT RAIN      68  65  90 SE20G25   29.76F FOG

$$

LAZ014-016-272300-
NORTHEAST LOUISIANA

CITY           SKY/WX    TMP DP  RH WIND       PRES   REMARKS
MONROE         TSTM      70  69  97 W14       29.90R FOG
TALLULAH       MOSUNNY   86  64  47 S21G28    29.86F

$$





USA.gov is the U.S. government's official web portal to all federal, state and local government web resources and services.